Regional Weather Roundup
Issued by NWS

Home | Current Version | Previous Version | Graphics & Text | Print | Product List | Glossary Off
Versions: 1 2 3 4 5 6 7 8 9 10 11 12 13 14 15 16 17 18 19 20 21 22 23 24 25 26 27 28 29 30 31 32 33 34 35 36 37 38 39 40 41 42 43 44 45 46 47 48 49 50

933
ASUS43 KLSX 241759
RWRMO

WEATHER SUMMARY FOR MISSOURI
NATIONAL WEATHER SERVICE SPRINGFIELD MO
100 PM CDT FRI MAR 24 2017

NOTE: "FAIR" INDICATES FEW OR NO CLOUDS BELOW 12,000 FEET WITH NO
       SIGNIFICANT WEATHER AND/OR OBSTRUCTIONS TO VISIBILITY.
       CURRENT SKY AND/OR WEATHER CONDITIONS ARE NOT AVAILABLE FOR
       CHILLICOTHE AND FARMINGTON.

MOZ001>031-035>038-043-044-053-054-241900-
...NORTHERN AND WESTERN MISSOURI...

CITY           SKY/WX    TMP DP  RH WIND       PRES   REMARKS
KANSAS CTY INT CLOUDY    63  56  78 CALM      29.87F
6HR MIN TEMP:  60; 6HR MAX TEMP:  69; 6HR PCP:  0.10;

KANSAS C DTWN  CLOUDY    66  57  72 S6        29.85F
6HR MIN TEMP:  61; 6HR MAX TEMP:  70; 6HR PCP:  0.08;

LEE`S SUMMIT   CLOUDY    67  55  65 SW14      29.86F
6HR MIN TEMP:  63; 6HR MAX TEMP:  70; 6HR PCP:  0.04;

ST JOSEPH      LGT RAIN  59  56  89 SE7       29.89R
6HR MIN TEMP:  56; 6HR MAX TEMP:  68; 6HR PCP:  0.33;

CHILLICOTHE      N/A     65  48  54 W7        29.92R
6HR MIN TEMP:  60; 6HR MAX TEMP:  69;

KIRKSVILLE     LGT RAIN  60  50  70 SW9       29.93S
6HR MIN TEMP:  60; 6HR MAX TEMP:  72; 6HR PCP: TRACE;


$$
MOZ066>068-077>081-088>096-101>105-241900-
...SOUTHWEST MISSOURI...

CITY           SKY/WX    TMP DP  RH WIND       PRES   REMARKS
SPRINGFIELD    CLOUDY    63  57  81 S14       29.95S
6HR MIN TEMP:  61; 6HR MAX TEMP:  71; 6HR PCP:  0.03;

JOPLIN         CLOUDY    65  56  72 S25G37    29.89S
6HR MIN TEMP:  61; 6HR MAX TEMP:  68; 6HR PCP:  0.10;

BRANSON        CLOUDY    68  50  52 S17G31    29.99F

$$
MOZ032>034-039>042-045>050-055>058-069>072-241900-
...CENTRAL MISSOURI...

CITY           SKY/WX    TMP DP  RH WIND       PRES   REMARKS
COLUMBIA       CLOUDY    72  51  47 S22G28    29.93S
6HR MIN TEMP:  63; 6HR MAX TEMP:  74;

JEFFERSON CITY CLOUDY    74  51  44 S18G24    29.93S
6HR MIN TEMP:  66; 6HR MAX TEMP:  77;

ROLLA          CLOUDY    71  52  50 S26G32    29.97S
6HR MIN TEMP:  62; 6HR MAX TEMP:  74;

SEDALIA          N/A     71  47  42 S17G26    29.91S THUNDER
6HR MIN TEMP:  64; 6HR MAX TEMP:  74; 6HR PCP: TRACE;

WARRENSBURG    CLOUDY    64  52  63 S15G23    29.88S
OSAGE BEACH    CLOUDY   N/A N/A N/A S24G32    29.96R

$$
MOZ051-052-059>065-241900-
...EAST CENTRAL MISSOURI...

CITY           SKY/WX    TMP DP  RH WIND       PRES   REMARKS
ST LOUIS INTL  PTSUNNY   79  54  41 S22G31    29.98S
6HR MIN TEMP:  54; 6HR MAX TEMP:  79;

SPIRIT OF STL  PTSUNNY   79  53  40 S10G23    29.95F
6HR MIN TEMP:  62; 6HR MAX TEMP:  79;

ST CHARLES     SUNNY     79  54  41 S21G32    29.95F
6HR MIN TEMP:  45; 6HR MAX TEMP:  79;


$$
MOZ072>076-082>087-097>100-106>115-241900-
...SOUTH CENTRAL AND SOUTHEAST MISSOURI...

CITY           SKY/WX    TMP DP  RH WIND       PRES   REMARKS
CAPE GIRARDEAU PTSUNNY   71  59  65 S17G37    30.11F
6HR MIN TEMP:  61; 6HR MAX TEMP:  71;

FARMINGTON     PTSUNNY   73  56  54 S24G33    30.04F
6HR MIN TEMP:  61; 6HR MAX TEMP:  73;

POPLAR BLUFF   CLOUDY    72  59  63 S22G32    30.09F
6HR MIN TEMP:  63; 6HR MAX TEMP:  73;

WEST PLAINS    PTSUNNY   70  54  56 S18G28    30.04F
6HR MIN TEMP:  60; 6HR MAX TEMP:  70;


$$




USA.gov is the U.S. government's official web portal to all federal, state and local government web resources and services.